COSMOS 2251 DEB, 35789

Orbit data source: Space-Track

COSMOS 2251 DEB, 35789 is space debris in LEO originally from a launch on Wed, 16 Jun 1993 UTC launched from the Plesetsk Missile And Space Complex (PKMTR). The debris from Iridium 33, an American commercial communications satellite, has been tracked extensively since its accidental collision with the defunct Russian satellite Cosmos 2251 in 2009. This event, occurring at high speed in low Earth orbit (LEO), generated thousands of pieces of space debris, significantly increasing the risk of further collisions. The Iridium 33 debris cloud has impacted space traffic management and orbital debris mitigation strategies, making it a subject of ongoing study in space situational awareness.

Loading next visibility...
Identifier
35789, 1993-036ASK
Orbit
LEO
Country
Flag of CISCIS
Related business
Manufacturer
Unknown
Mission
Spacecraft
Bus & Motor
Unknown
Mass
Unknown
Launch date (UTC)
1993-06-16 (33 years ago)
Launch vehicle
Unknown
Launch site
Plesetsk Missile And Space Complex (PKMTR)
Object type
Payload
Rocket body
Debris
Shape & HBR
Unknown shape, 0.1 m
Radar Cross Section
Small (<0.1 m²)

Expand to show TLE details & history
Last TLE update: 2 days ago

TLE from 2 days ago
0 COSMOS 2251 DEB
1 35789U 93036ASK 26060.87990670  .00000329  00000-0  12072-3 0  9992
2 35789  74.0388 139.1024 0048732 221.8972 137.8448 14.36054211623631
Epoch: 2026-03-01T21:07Z
TLE epoch observation values (Epoch: 2026-03-01T21:07:03.938Z)
Latitude
-0.00007°
Longitude
22.65464°
Altitude
800.086 km
Speed
7.44 km/s
True Right ascension
09h 16m 24s
True Declination
0° 00' 00"
Sunlit
Object was in full shadow at epoch
Visualization orbit readout
Latitude
Unknown
Longitude
Unknown
Altitude
Unknown
Speed
Unknown
Apparent Right ascension
Unknown
Apparent Declination
Unknown
Sunlit
N/A
Visualization observer readout
Local Sidereal Time
14:33:49
Azimuth
Unknown
Elevation
Unknown
Doppler factor
Unknown
Orbital elements
Apogee altitude
804.019 km
Perigee altitude
734.358 km
Semi-major axis
7,147.326 km
Eccentricity
0.00487
Inclination
74.0388°
RAAN
139.1024°
Arg. of periapsis
221.8972°
True anomaly
138.2179°
Mean anomaly
137.8448°
Eccentric anomaly
138.03152°
Mean motion
3.59193 °/min
Orbital period
100.22 mins
BSTAR
0.00012072
Loading maneuver chart data...
Computing Atmospheric mass density...

Documentation

Showing up to 5 results
|